Theta_e
349 347 348 352 352 352 355 359 359 358 357 355 356 356 356 356 357 357 357 359 361 363 364 364 362 362 361 361 361 360 361 361 361 360 358 358 358 358 356 356 355 353 353 353 351 350 349 347 345 343 342 342 342 342 342 342 340 339 339 338 338 339 338
348 348 346 349 352 353 355 357 359 360 358 356 356 356 357 357 356 356 357 360 362 362 364 364 363 362 362 362 361 361 360 360 361 360 359 358 359 358 356 355 354 352 352 351 349 349 348 346 344 343 343 342 342 342 342 342 340 339 339 338 338 338 338
348 351 349 349 353 355 356 356 358 359 358 357 357 357 357 357 356 356 358 361 361 362 363 365 364 364 364 363 361 361 361 361 361 360 359 358 358 357 355 354 353 351 350 350 349 349 347 346 345 344 344 343 342 342 342 340 340 339 338 338 338 337 337
344 350 350 350 353 357 357 356 356 359 358 357 357 357 357 358 357 357 359 360 361 362 364 365 365 365 364 364 362 361 361 361 361 360 359 358 356 356 355 353 353 351 349 349 349 349 347 346 346 346 345 344 343 342 341 340 339 339 339 338 338 337 337
341 344 348 350 353 357 359 356 356 358 357 356 356 356 357 358 358 359 360 359 360 361 363 364 364 364 364 364 362 361 361 361 361 360 359 358 356 355 353 351 351 350 348 349 350 350 348 346 346 346 344 344 343 342 340 340 339 339 339 338 338 338 337
340 344 350 352 353 357 359 356 355 357 356 356 355 355 358 359 358 359 360 359 359 361 363 364 363 363 363 364 362 361 361 361 361 361 359 357 356 354 351 350 351 350 349 352 352 351 349 345 344 345 344 343 343 342 341 340 340 339 339 339 338 338 337
339 346 352 352 353 356 359 357 356 356 356 355 355 357 359 358 356 356 358 359 358 360 364 364 362 362 363 363 363 362 362 361 361 361 360 358 356 354 352 352 350 349 352 354 354 352 348 342 341 342 343 343 343 343 342 341 341 340 339 339 339 339 338
340 348 351 351 352 354 358 358 356 355 355 354 355 357 357 355 353 354 356 358 356 357 361 360 359 361 362 363 363 363 363 362 361 362 360 357 356 354 354 354 351 351 353 352 351 350 345 340 339 339 339 340 342 343 343 343 342 341 340 339 339 340 339
341 349 351 350 349 350 356 359 357 357 356 355 354 354 354 353 353 353 355 357 355 355 357 356 355 358 362 364 364 364 365 363 362 361 359 357 357 357 357 356 355 352 351 347 345 347 345 340 338 337 335 336 339 342 343 343 342 341 340 339 338 338 338
352 354 353 352 349 351 355 356 358 360 359 356 354 353 354 353 352 352 353 353 353 353 354 353 351 353 358 364 366 366 367 365 363 361 359 358 358 358 359 359 356 352 348 342 338 341 342 339 337 335 332 333 339 343 344 343 343 342 339 337 336 337 338
357 356 355 358 357 356 356 359 365 368 365 361 355 352 354 353 352 352 351 351 350 351 352 351 350 350 354 362 367 367 368 366 364 362 361 358 356 358 359 358 355 350 346 338 333 338 341 338 336 334 331 332 338 342 344 343 343 342 338 336 336 337 338
354 356 356 361 363 361 362 367 372 374 371 364 354 350 354 354 352 350 350 350 349 350 351 351 352 351 352 360 365 365 367 366 364 364 363 358 356 358 359 356 352 348 345 335 330 338 342 338 336 334 332 332 333 337 342 343 342 340 337 336 337 337 339
351 355 359 364 365 365 370 374 374 375 373 365 354 351 353 354 353 350 351 351 349 349 351 353 354 351 349 357 365 365 366 366 364 365 363 359 359 360 357 354 350 346 342 331 328 335 339 338 337 333 331 331 328 330 337 339 338 336 335 336 338 338 339
348 352 360 368 368 367 371 373 374 374 371 364 357 353 353 354 355 353 351 352 351 350 352 354 354 352 349 355 363 365 366 366 364 363 362 361 361 359 356 353 348 343 337 329 327 332 333 334 336 333 332 331 330 330 331 333 335 335 334 336 338 339 339
346 352 361 368 369 369 370 370 373 373 370 365 361 357 355 356 358 358 354 354 354 353 353 353 354 354 353 354 359 365 368 367 365 364 364 363 361 357 354 352 348 342 334 329 329 331 331 332 334 334 334 333 333 333 333 334 336 336 334 336 338 340 340
339 349 357 360 364 368 368 368 370 371 371 371 367 363 362 361 361 361 358 357 357 357 354 355 357 359 357 354 356 363 368 369 366 365 364 362 360 356 354 351 347 341 332 329 331 333 333 334 337 338 337 337 337 336 336 336 335 334 334 336 338 341 341
334 339 343 344 353 364 370 370 370 371 374 373 371 370 368 366 364 362 362 362 362 361 358 357 362 365 363 359 361 366 369 367 365 364 362 360 358 355 353 351 346 338 332 332 335 335 336 338 340 341 339 338 339 339 338 337 335 335 336 336 338 341 342
337 337 337 342 353 365 371 371 371 374 373 372 373 371 369 368 368 366 365 365 364 364 360 360 364 365 364 367 370 370 368 364 363 362 359 358 357 355 353 350 344 339 340 343 341 340 341 341 341 341 338 338 339 340 339 337 335 336 337 337 337 338 340
338 335 336 350 357 362 367 368 370 374 375 373 371 372 370 371 371 368 368 367 367 366 363 364 367 367 368 371 371 368 365 363 363 361 358 358 356 354 353 350 346 345 347 349 348 346 346 344 342 341 340 340 341 339 338 337 336 337 337 335 336 337 338
337 333 339 352 353 353 363 369 370 373 376 375 371 370 372 372 372 371 370 368 369 368 367 367 370 372 372 370 370 367 365 363 362 361 360 358 356 355 354 351 348 347 348 350 350 349 348 345 344 343 342 341 341 339 337 337 337 338 336 333 333 336 337
339 342 349 354 353 355 364 369 370 371 375 375 371 371 373 373 374 373 369 368 370 371 370 372 373 374 371 369 368 367 365 363 362 360 360 359 358 357 356 353 351 349 348 348 348 348 348 345 344 344 342 342 342 340 339 337 336 337 336 332 331 335 336
338 346 351 354 358 362 367 368 366 368 372 372 370 371 372 373 373 370 366 368 372 372 373 373 373 373 371 368 366 364 363 362 361 361 360 360 359 358 357 356 354 352 349 348 347 347 347 345 343 342 343 342 342 341 340 338 335 336 335 332 333 336 336
338 341 344 350 356 362 367 367 366 369 373 372 370 371 373 372 371 369 368 371 374 374 374 374 373 373 372 369 366 363 362 360 360 360 359 359 359 358 357 357 356 354 352 349 347 345 345 344 343 343 344 343 342 341 340 338 336 336 335 333 334 336 335
338 335 340 347 352 359 366 367 367 369 370 371 370 371 373 372 371 372 372 374 375 376 375 373 372 372 371 369 366 363 361 359 358 358 357 357 357 356 356 355 354 354 352 350 347 345 343 343 343 343 343 343 342 342 340 339 338 337 335 334 335 335 336
338 336 342 348 353 359 365 365 365 367 369 370 370 371 372 372 372 373 373 375 376 375 374 372 371 370 368 366 363 361 359 357 357 356 356 355 355 354 353 352 352 351 350 348 348 346 343 342 342 342 341 341 341 341 340 340 341 339 336 335 334 334 336
342 340 343 347 352 360 364 364 366 368 368 368 368 369 369 370 371 373 373 375 374 373 373 372 369 367 365 362 360 359 358 358 357 357 356 355 354 353 352 351 349 348 348 347 346 345 344 343 342 342 342 341 341 341 340 339 341 339 336 335 334 333 334
345 346 347 350 357 361 364 365 366 365 365 367 367 367 368 369 371 373 373 374 374 373 372 370 367 365 362 360 359 358 357 357 357 357 356 354 353 352 351 349 348 348 348 347 345 343 343 343 343 342 341 341 340 340 339 338 338 337 335 334 334 332 332
348 349 349 355 360 362 362 362 362 362 362 363 364 366 367 370 372 373 373 372 371 371 369 367 366 364 362 360 359 357 357 356 356 356 355 354 354 352 349 347 348 349 349 346 344 343 343 342 341 339 339 338 337 337 337 337 336 335 335 333 332 330 329
351 351 356 360 360 360 361 362 363 366 366 365 366 367 369 371 372 371 370 369 367 367 368 367 365 363 360 359 357 356 355 355 355 355 354 354 353 351 348 347 348 349 348 344 341 341 341 340 338 336 336 336 336 336 336 336 335 334 333 332 332 331 330
357 357 359 360 359 359 361 362 365 366 362 359 357 356 360 365 367 365 364 366 366 365 365 365 363 361 359 357 355 353 353 354 354 353 353 352 351 349 348 347 346 346 345 341 338 339 339 339 338 336 335 335 335 335 335 338 338 335 333 333 333 333 331
356 355 355 356 360 363 363 364 366 365 362 361 358 356 357 361 363 364 364 365 365 364 364 362 361 359 357 355 353 353 353 353 353 352 352 351 349 347 346 345 344 343 341 338 337 337 339 339 338 337 336 335 335 334 334 338 340 338 335 333 332 331 329
350 349 351 353 355 358 360 361 363 363 364 365 364 364 365 364 365 366 367 366 366 365 363 360 358 357 355 354 354 353 352 353 352 351 350 349 347 345 344 343 342 341 339 336 335 337 339 339 337 336 335 334 333 333 334 336 337 337 335 332 330 329 329
350 348 348 349 349 350 352 353 354 354 355 356 356 360 364 366 368 367 366 365 364 362 360 358 355 355 355 355 354 353 353 352 350 349 348 347 346 345 344 342 340 339 338 336 335 337 338 337 335 333 333 333 332 332 334 335 336 336 335 333 331 330 330
355 352 349 347 348 349 349 351 353 354 356 356 354 355 358 362 363 363 363 362 360 359 358 356 355 354 354 354 353 352 351 349 347 346 346 346 345 344 342 340 337 337 338 337 336 337 337 335 334 333 333 333 333 332 333 335 336 336 336 336 335 332 330
356 355 352 349 348 350 352 354 356 357 359 359 359 358 359 360 360 360 360 359 358 357 356 354 353 353 352 351 351 351 349 347 346 346 345 344 343 342 342 341 339 339 339 338 339 338 337 335 336 335 334 333 333 333 334 335 336 337 337 336 334 331 329
350 352 353 351 349 350 353 356 356 357 358 358 359 359 359 359 358 358 357 356 355 355 354 353 352 351 350 349 348 348 347 346 345 344 344 343 342 340 338 338 339 340 339 338 338 337 336 336 336 335 334 335 334 333 333 333 333 333 334 334 332 330 329
347 348 351 352 351 352 353 353 354 356 356 355 356 357 357 357 356 355 355 355 354 354 353 352 351 350 349 348 347 347 346 344 344 344 342 342 342 339 337 337 337 337 336 336 336 335 334 334 334 333 333 333 333 331 330 332 332 331 331 332 331 329 329
341 343 346 349 351 352 353 352 353 354 354 354 355 354 354 354 354 353 354 354 353 352 352 352 351 350 350 348 347 346 345 344 344 343 342 342 341 339 338 338 336 334 332 332 333 333 330 330 331 332 332 331 331 330 329 330 331 331 330 331 330 328 327
Wind_Speed
20 18 17 16 17 20 21 22 22 25 28 31 32 34 34 33 32 30 29 30 30 29 30 29 28 27 27 27 26 25 23 21 19 18 18 17 15 14 14 13 12 10 9 7 7 6 6 5 6 6 6 6 7 7 7 6 7 6 6 6 5 5 5
17 16 16 17 19 22 24 23 23 26 29 31 33 34 35 34 33 32 30 30 31 30 30 30 30 29 27 27 26 25 24 22 20 19 18 17 16 15 14 13 12 10 8 7 6 5 6 6 6 6 7 7 8 8 8 8 8 8 8 7 7 7 6
13 15 16 17 19 21 23 22 23 28 30 32 34 34 35 35 34 34 32 31 32 31 30 30 30 29 28 27 27 26 25 23 22 21 20 19 18 16 15 13 12 10 9 8 6 5 6 6 6 7 7 8 8 9 9 9 9 9 9 8 9 9 9
12 15 16 18 20 20 21 22 23 27 31 33 35 35 35 36 35 34 33 32 32 32 31 30 30 29 28 27 27 26 26 24 23 23 21 20 19 18 16 14 13 11 10 9 7 7 6 6 6 6 7 8 9 9 10 10 10 10 10 10 10 11 10
15 15 14 15 18 19 20 22 23 27 31 33 35 34 34 35 35 34 34 32 32 32 32 30 29 28 27 27 26 26 26 26 25 24 23 21 20 18 17 16 15 13 11 10 9 9 8 7 7 8 9 9 10 10 11 11 11 11 12 12 12 12 11
15 14 12 14 16 19 21 23 26 30 33 34 34 34 33 35 35 34 34 33 32 31 31 31 30 28 27 27 26 26 26 27 26 24 23 22 20 19 18 17 16 14 12 12 12 12 12 11 11 13 13 13 13 13 13 14 14 14 13 14 14 13 12
12 12 11 13 15 19 22 23 25 31 33 32 33 33 34 35 35 34 33 33 33 32 31 31 31 28 27 27 27 27 27 27 26 25 23 22 21 20 19 19 19 17 15 16 16 15 16 17 19 21 19 18 17 17 17 17 17 16 14 14 14 14 13
13 14 14 15 15 18 21 21 22 27 30 30 31 33 34 34 34 34 34 33 34 33 31 31 30 29 27 27 27 27 27 27 27 26 24 23 23 23 22 22 23 23 22 22 21 21 23 25 26 26 24 23 22 21 19 18 18 16 14 14 14 14 14
15 18 17 16 15 18 19 19 20 22 26 29 30 31 33 33 33 34 35 33 33 34 33 30 29 28 27 27 26 27 27 27 27 27 26 26 27 26 25 26 30 31 30 28 26 28 31 30 29 28 26 26 26 24 20 18 18 17 15 14 15 15 14
10 15 14 15 17 18 17 17 17 18 20 23 25 29 32 32 33 33 34 33 33 33 33 31 29 28 28 27 26 26 27 28 28 29 30 30 30 30 30 34 39 39 36 34 33 36 36 33 31 30 29 29 28 25 22 20 18 16 16 16 17 17 16
9 9 10 12 16 17 17 17 15 14 15 18 23 28 30 31 32 32 33 33 33 32 32 32 31 30 30 29 28 28 29 30 31 32 34 33 32 32 34 40 44 41 39 39 39 40 39 35 33 32 31 31 29 27 26 23 20 17 16 17 18 17 16
5 6 7 10 13 14 15 13 12 13 13 17 24 28 28 30 32 32 31 33 33 31 30 31 31 31 31 30 30 30 31 32 32 34 35 33 33 35 36 41 44 43 42 44 44 42 39 35 35 34 33 33 31 29 27 23 19 18 17 17 18 17 15
1 4 6 10 11 12 13 12 12 14 13 17 25 29 29 31 32 31 30 31 32 30 29 30 31 32 31 29 30 32 32 33 34 35 35 34 36 37 37 41 46 46 47 48 46 43 39 36 36 36 35 34 32 31 29 25 20 19 18 18 19 18 16
5 7 8 10 12 13 14 13 13 15 15 18 25 29 30 31 32 32 31 31 32 30 30 31 32 33 32 30 31 33 33 33 34 34 35 36 37 38 41 46 49 49 49 48 47 44 41 39 40 38 36 34 32 31 29 26 22 19 18 19 20 19 17
13 13 12 12 13 14 14 13 14 15 16 18 22 27 29 30 30 30 30 31 32 31 31 32 32 32 31 30 32 32 32 32 31 31 34 37 39 41 47 52 52 50 50 49 48 46 43 42 41 39 36 33 29 27 25 22 20 19 19 20 20 20 18
15 16 15 14 13 13 13 14 15 15 16 17 19 24 27 28 29 30 31 31 31 31 30 29 29 30 31 32 32 31 31 31 30 31 33 37 44 47 49 52 52 51 51 50 49 47 44 42 39 34 33 31 26 24 22 20 19 19 20 21 21 20 18
16 12 13 13 11 11 13 14 15 16 17 18 21 25 27 27 28 30 30 30 31 31 30 28 28 28 29 30 29 28 30 32 31 30 33 41 48 49 48 50 52 52 52 51 49 46 42 40 36 28 24 25 23 22 21 20 19 20 21 23 24 22 19
13 14 13 9 8 10 13 15 16 18 20 21 24 27 28 27 28 29 29 29 30 30 30 29 28 28 26 25 25 28 31 31 29 29 35 44 50 50 49 50 50 50 47 42 41 41 37 36 36 28 20 19 19 20 20 19 20 22 23 24 26 26 22
13 16 13 8 9 11 14 16 16 19 20 21 24 29 29 29 29 29 29 28 28 28 29 28 28 28 28 28 29 31 31 30 30 30 35 42 46 46 46 46 47 43 33 24 25 27 26 28 29 23 18 16 17 18 19 19 21 24 25 25 26 26 24
16 15 12 7 8 11 13 15 15 17 20 22 25 28 29 29 28 28 28 28 27 27 27 27 27 28 29 30 31 31 30 31 32 32 32 34 35 35 34 36 38 34 23 15 15 15 15 17 17 16 16 16 15 17 17 18 20 24 25 24 24 24 26
14 12 10 10 11 13 14 15 16 17 20 24 26 27 27 27 27 28 28 27 26 26 26 27 28 28 28 29 29 29 29 29 30 29 28 27 27 27 26 26 26 24 19 16 14 12 12 13 13 13 14 14 14 15 16 17 20 22 22 22 22 24 26
14 12 11 11 12 13 14 16 18 18 21 24 26 27 27 28 28 28 27 27 26 27 27 28 29 28 28 27 27 27 26 27 27 26 24 23 23 24 25 23 20 19 18 17 15 13 12 12 12 13 13 14 15 16 16 17 20 21 22 21 21 23 25
16 15 13 12 12 13 14 17 19 20 22 25 27 27 27 27 27 27 27 27 26 27 27 27 27 28 27 27 27 26 24 25 24 23 22 22 22 23 23 22 20 19 18 17 16 14 12 12 13 13 14 15 17 18 18 18 21 22 22 21 21 23 24
14 15 13 11 12 13 14 17 19 21 24 25 26 27 27 27 28 28 27 27 27 27 27 27 27 29 29 28 27 26 26 25 24 23 23 22 22 22 21 20 20 20 19 16 16 14 12 12 12 12 13 15 16 18 18 18 19 21 20 20 21 22 23
12 13 12 12 13 14 16 18 20 22 24 24 24 25 25 26 27 27 26 27 27 27 26 27 27 27 27 25 24 25 27 26 23 23 23 21 21 20 19 18 19 19 17 15 14 14 13 13 12 12 13 14 14 16 17 17 17 18 19 20 22 23 21
11 12 11 12 14 15 17 18 19 20 22 25 25 25 26 26 25 25 25 26 27 26 25 25 24 23 23 23 24 26 27 24 22 22 21 20 19 17 16 16 16 16 15 14 14 14 14 14 13 12 13 13 12 13 15 15 15 16 17 19 22 24 21
10 10 11 11 13 15 17 17 18 19 20 23 25 26 27 26 24 23 24 25 25 24 24 24 23 23 23 23 23 25 24 23 22 21 19 18 18 17 17 18 17 17 17 15 14 15 14 14 13 13 13 12 12 12 13 13 14 16 19 19 20 21 22
9 10 11 11 13 16 16 16 18 19 19 21 24 25 26 26 24 22 22 22 23 23 24 25 24 23 23 22 22 22 22 23 22 20 19 19 18 18 19 19 17 17 16 14 13 13 12 12 12 12 12 11 11 11 10 10 12 15 17 18 18 21 24
9 10 10 12 14 17 18 16 17 19 21 22 24 25 25 24 22 20 19 20 21 23 24 24 23 23 22 21 20 20 21 22 21 19 20 20 20 20 20 19 17 15 13 13 12 11 11 10 11 11 12 11 11 11 10 10 11 13 15 18 19 21 23
9 10 12 14 16 18 19 18 18 20 23 23 23 24 24 23 20 18 18 19 21 23 24 24 23 23 22 21 21 21 20 19 19 18 18 19 20 20 18 17 15 13 13 13 13 11 12 11 11 12 12 12 12 12 11 10 11 14 18 19 18 18 20
11 12 13 15 17 20 21 20 19 20 20 20 20 21 21 21 19 18 18 19 21 22 23 22 23 23 23 23 23 23 22 22 21 19 19 19 19 17 16 15 14 13 14 14 12 12 12 12 12 12 11 11 12 12 12 12 12 14 17 17 16 17 18
12 13 14 16 18 20 22 21 20 20 19 19 19 19 18 19 20 20 20 20 21 23 23 22 21 20 21 22 22 23 25 25 23 20 19 19 18 15 14 15 14 13 14 13 12 12 12 12 13 13 12 12 12 11 12 13 13 13 15 16 16 17 16
14 14 14 16 17 19 20 19 17 17 17 17 16 17 17 18 19 19 20 22 23 25 26 25 23 19 19 21 22 22 23 23 22 20 18 18 18 17 16 15 14 13 12 12 13 13 13 13 13 13 12 12 12 11 10 11 12 13 14 15 16 15 15
14 14 15 17 18 18 18 17 16 16 16 15 14 14 14 15 15 17 19 21 24 25 25 24 23 22 21 21 21 20 19 19 20 19 19 19 19 19 17 16 14 14 13 12 13 13 13 13 12 12 12 12 11 11 10 10 11 12 13 14 14 14 14
13 14 15 16 18 17 17 16 16 16 15 15 14 14 14 14 15 17 18 19 21 23 23 22 23 23 22 21 20 19 18 18 18 18 19 19 15 13 14 14 12 12 12 11 10 9 9 10 10 9 10 10 10 10 10 10 11 12 13 13 13 13 15
13 13 14 16 17 17 17 16 15 16 16 15 14 15 15 15 16 17 17 18 18 19 21 22 22 21 21 20 19 19 18 18 18 18 20 18 13 11 13 13 10 10 11 10 9 8 7 7 6 5 4 2 4 8 10 9 11 13 14 14 13 13 15
12 12 14 15 15 15 15 15 15 15 15 14 14 14 15 15 16 16 16 16 15 17 19 20 19 19 19 18 19 20 19 19 19 19 19 18 16 13 13 12 11 11 11 10 9 9 8 8 7 6 4 6 7 8 8 7 9 12 13 14 16 16 17
14 13 13 15 15 14 14 13 12 13 13 12 13 14 14 14 15 15 16 16 16 17 19 19 18 19 19 18 20 21 21 20 20 19 18 18 18 17 15 13 11 9 8 8 9 9 9 11 11 10 7 6 6 8 8 8 9 11 12 16 19 20 18
Wind_Direction
183 197 204 192 196 207 202 194 189 190 190 190 192 193 194 196 196 195 195 195 195 195 195 195 195 196 196 196 196 195 195 194 194 195 199 200 200 199 196 191 189 189 183 179 182 180 178 183 194 205 212 215 219 217 213 210 209 208 204 206 215 222 227
174 187 200 192 196 206 202 194 189 189 190 190 191 192 193 194 194 194 195 194 195 195 195 195 196 196 196 195 195 194 194 193 193 193 196 199 199 198 198 192 185 184 182 176 173 169 171 180 191 200 209 214 214 209 207 207 207 211 213 210 211 217 225
179 184 195 195 198 205 200 194 191 189 189 190 190 192 193 192 192 193 193 193 195 195 196 196 196 197 196 196 196 194 193 192 191 192 195 196 196 195 194 189 181 181 181 178 172 163 167 178 188 199 207 211 209 206 209 211 210 214 218 217 215 216 223
204 199 200 201 199 203 200 194 193 191 190 191 190 191 192 190 190 192 194 194 195 195 197 197 196 197 197 196 196 195 194 193 192 193 195 196 194 191 188 184 179 182 181 173 165 159 163 172 180 192 203 209 212 210 213 217 215 215 218 221 222 223 226
211 209 206 205 200 201 199 194 195 193 192 192 191 190 190 189 189 192 195 196 196 197 198 198 198 198 197 196 197 197 195 194 193 193 194 195 193 188 186 184 179 182 180 166 161 160 157 162 178 194 202 207 214 218 218 219 216 217 219 221 225 227 229
201 194 198 211 204 200 199 196 195 194 192 191 189 189 189 189 191 193 194 196 197 197 197 198 199 198 197 197 197 197 196 195 194 193 193 193 190 187 187 184 178 180 175 161 159 164 163 170 185 194 199 203 209 216 218 215 212 214 217 221 227 230 231
188 166 182 216 215 204 198 196 197 193 192 190 186 187 189 191 193 194 195 196 197 197 197 198 199 198 197 197 197 196 196 196 194 193 192 190 188 188 186 182 179 177 172 165 166 176 184 190 193 194 195 199 204 210 214 212 209 210 213 219 227 232 235
182 160 178 206 217 215 200 193 196 193 190 190 187 188 190 191 192 194 195 196 196 198 199 198 199 199 197 197 197 196 196 196 194 192 190 186 186 187 182 180 179 175 176 179 184 193 201 202 198 195 195 199 201 205 209 209 208 209 211 216 224 229 233
181 162 179 193 206 223 209 192 194 189 185 190 190 189 191 191 192 194 196 197 196 199 199 197 197 199 198 197 197 196 194 194 193 191 189 186 185 183 177 175 178 180 187 194 200 206 209 207 202 196 197 201 201 201 204 207 208 209 210 214 222 226 228
156 153 177 186 198 220 212 193 192 186 182 187 189 188 190 192 193 193 195 197 198 199 199 196 194 196 198 198 198 197 195 194 192 190 190 188 185 181 176 176 181 187 195 200 208 213 211 208 205 200 199 202 200 196 198 202 206 209 211 216 222 224 226
120 148 183 190 199 213 208 193 189 187 183 183 185 187 189 191 193 193 194 197 198 198 198 195 193 194 196 196 198 199 197 195 192 189 189 190 188 183 179 180 185 191 196 202 210 214 210 206 206 203 201 202 200 196 197 200 202 205 213 222 224 222 224
131 170 197 202 206 207 204 195 184 185 184 180 183 187 187 189 193 194 194 196 199 198 195 192 191 193 194 194 196 198 198 197 193 189 188 190 190 183 179 183 187 192 199 206 212 212 209 209 209 206 204 204 203 202 200 198 197 201 212 226 228 223 222
228 229 215 209 209 205 201 196 187 186 184 181 184 187 189 190 193 195 194 195 199 198 191 187 191 195 193 192 193 194 196 198 196 191 187 188 186 181 180 185 189 195 203 209 213 211 210 212 213 210 209 208 208 207 203 200 198 199 208 224 230 226 221
201 235 232 209 203 205 202 197 191 187 184 185 186 188 190 191 193 195 194 194 198 197 189 187 192 194 190 189 192 194 196 198 197 191 185 183 182 181 186 190 194 201 208 211 213 212 213 216 217 215 213 211 209 208 206 202 198 197 204 218 227 226 222
194 200 212 212 201 200 203 201 195 188 186 188 188 187 189 191 192 193 194 194 197 196 192 190 191 190 188 189 191 193 193 194 194 188 181 179 180 186 193 197 201 208 212 212 213 213 215 218 218 216 213 209 206 204 202 198 195 196 203 214 223 225 223
216 195 196 210 206 194 198 205 201 190 185 186 186 185 186 188 190 193 194 194 194 195 194 190 185 184 187 190 192 192 189 185 184 181 179 181 186 191 197 200 204 209 212 213 213 212 213 212 212 213 209 204 200 196 196 196 195 197 203 212 221 224 223
240 231 217 219 215 195 191 200 203 193 186 185 184 184 185 188 190 192 193 192 191 193 193 187 183 183 185 188 189 184 177 174 173 175 182 188 191 194 198 201 204 208 212 215 213 210 209 207 206 205 199 196 194 190 191 195 195 198 204 211 219 222 222
242 255 250 221 201 200 194 195 200 197 192 189 186 185 185 187 188 189 191 190 189 190 189 186 187 184 180 178 173 165 165 169 172 177 186 193 196 199 202 203 203 208 212 213 211 210 209 207 209 207 195 189 192 192 194 197 197 200 204 212 220 224 226
235 249 249 203 187 207 201 195 200 201 198 193 189 187 185 185 186 187 188 187 186 187 186 185 187 180 171 167 164 161 166 173 179 187 193 197 200 202 202 203 205 209 212 210 207 208 207 207 210 207 193 187 192 196 200 202 200 201 205 213 223 228 228
237 242 241 208 207 221 206 199 202 200 199 197 192 189 186 184 183 182 182 181 181 183 182 180 179 170 161 160 162 165 172 176 183 192 196 196 198 200 202 205 209 212 214 208 202 201 197 196 196 190 184 187 193 198 205 209 207 205 209 216 224 228 229
229 221 218 204 210 216 205 201 201 196 196 197 192 188 184 182 180 178 178 177 176 177 175 173 173 164 155 159 166 170 175 179 184 190 192 191 195 199 203 207 211 215 216 215 212 204 193 188 184 182 185 190 195 202 210 216 214 210 211 218 224 227 227
222 213 214 205 202 204 200 201 201 194 191 191 189 185 182 182 180 177 176 175 172 172 170 171 174 167 157 161 168 169 172 179 183 184 186 188 193 201 206 208 209 212 213 213 212 203 193 189 190 192 193 193 197 203 210 218 219 215 213 218 222 223 224
228 225 223 211 204 203 198 198 198 190 184 184 184 183 182 180 177 173 170 169 167 167 168 171 173 168 163 166 170 171 174 179 182 181 181 186 193 200 205 205 204 204 204 204 204 202 196 195 198 198 196 196 200 205 212 222 223 218 215 219 222 221 220
228 229 224 208 202 198 189 191 192 185 182 183 182 180 178 176 171 166 164 165 164 163 165 168 170 170 170 171 171 172 176 180 184 183 182 186 193 197 201 202 202 202 201 201 205 209 208 204 204 202 200 206 214 216 218 222 221 215 214 219 223 221 217
225 224 219 206 200 190 181 185 185 179 178 178 176 175 174 172 169 165 162 161 161 160 162 165 167 169 171 170 167 169 173 178 183 184 182 185 191 194 196 198 199 201 200 202 209 216 217 214 212 210 208 217 227 225 221 222 220 215 217 223 224 221 216
220 217 214 207 197 182 174 177 177 175 176 174 171 172 171 169 166 162 158 156 156 158 160 158 156 159 163 164 164 169 174 176 179 181 180 181 184 186 188 190 192 193 191 193 201 206 210 211 211 215 218 220 222 220 219 221 217 212 216 223 224 221 215
203 207 211 199 181 167 163 167 173 178 179 172 166 165 163 160 157 156 154 152 152 153 152 148 148 152 157 160 163 169 173 175 177 177 173 172 176 181 184 184 184 184 182 184 189 190 197 206 209 215 220 219 216 216 219 221 218 213 215 220 222 220 216
189 199 197 173 157 155 157 162 169 171 166 159 155 154 153 151 149 148 148 146 145 145 145 145 147 150 154 157 161 166 171 173 175 174 169 169 175 179 181 182 182 180 178 179 179 177 184 203 211 211 212 213 216 216 211 211 214 210 208 213 221 222 217
181 179 163 146 149 157 158 156 155 153 149 148 150 150 146 140 135 135 140 140 140 142 142 143 145 146 147 151 154 161 168 172 173 171 169 172 174 175 179 181 177 173 172 169 165 165 175 195 209 211 210 209 210 206 194 191 204 211 211 215 221 223 217
157 160 155 153 152 149 147 143 138 140 142 143 145 143 136 130 129 134 138 137 136 138 139 140 142 141 142 146 152 159 164 166 168 169 169 172 172 172 175 175 166 164 168 166 162 168 179 189 201 210 212 206 202 204 199 191 200 218 224 223 218 215 210
144 146 143 138 127 120 120 119 117 118 120 121 123 126 128 132 133 129 127 127 130 134 136 139 141 142 144 149 155 161 162 162 166 170 169 170 169 168 169 168 163 163 168 167 169 178 185 190 197 204 208 205 202 204 201 193 194 211 221 218 208 204 204
107 112 117 118 113 109 108 105 101 99 97 99 104 110 119 127 128 125 125 128 131 135 137 138 137 141 149 154 159 164 165 164 166 167 165 167 169 166 167 171 171 167 167 173 182 188 191 194 195 196 198 204 207 202 193 188 186 192 201 201 197 198 203
87 89 97 102 103 104 104 101 98 97 97 100 106 111 115 121 125 129 133 134 136 139 140 139 139 146 157 160 162 163 162 161 162 159 157 164 173 177 178 180 177 171 173 185 191 191 193 195 195 197 200 205 209 203 193 189 187 183 183 186 191 201 207
84 84 86 87 89 95 100 100 99 98 97 98 104 112 117 119 126 133 136 138 141 142 142 143 146 153 160 161 160 159 157 158 158 156 160 172 181 182 181 182 185 182 183 192 195 190 193 198 201 205 208 209 212 208 198 194 198 196 187 181 182 189 195
78 78 80 82 82 85 90 96 100 101 101 101 104 111 113 117 127 137 139 142 145 145 146 148 150 153 156 158 158 157 157 160 160 161 169 175 173 164 163 172 187 186 178 184 191 188 192 203 207 211 218 222 218 207 196 193 199 200 193 188 186 183 182
77 77 78 81 83 82 83 87 92 94 97 100 104 110 115 121 132 138 140 145 151 151 151 152 153 152 153 157 159 158 158 161 163 167 173 172 158 140 143 152 162 162 159 168 184 187 191 201 203 204 215 198 159 173 186 197 204 202 197 198 200 190 181
65 72 76 79 80 80 79 81 83 85 89 93 98 103 109 116 124 129 131 136 142 145 148 153 154 152 153 158 159 158 160 162 163 167 173 174 170 162 154 148 146 147 151 162 175 184 197 213 217 203 156 99 112 152 172 181 193 200 200 200 199 190 185
50 57 69 76 77 76 74 74 77 81 85 90 95 101 104 105 111 120 125 128 132 140 148 155 156 155 157 155 153 159 166 165 162 168 174 174 175 177 171 161 158 158 162 178 191 204 216 222 222 215 186 137 137 164 165 155 165 181 187 188 188 186 186